[[{"header":{"parameterUnit":"m.s-1","parameterCategory":2,"la1":30.2991,"la2":30.254,"lo1":-89.0895,"lo2":-89.0444,"dy":0.0017,"dx":0.0017,"nx":28,"ny":28,"refTime":"2024-04-13T09:00:00:Z","depth":"0","parameterNumber":2,"parameterNumberName":"U-component_of_CURRENTS"},"data":[0,0,0,0,0,0,0,0,0,0,0,0,0,0,0,0,0,0,0,0,0,0,0,0,0,0,0,0,0,0,0,0,0,0,0,0,0,0,0,0,0,0,0,0,0,0,0,0,0,0,0,0,0,0,0,0,0,0,0.2584,0.2584,0,0.2623,0.2623,0.2623,0.2618,0.2618,0.2617,0.2617,0.2657,0.2658,0.2659,0,0,0,0,0,0,0,0,0,0,0,0,0,0.2533,0.2534,0.2584,0.2585,0.2585,0.2623,0.2623,0.2623,0.2618,0.2618,0.2617,0.2617,0.2656,0.2658,0.266,0,0,0,0,0,0,0,0,0,0,0,0,0,0.256,0.2534,0.2584,0.2589,0.259,0.2623,0.2623,0.2623,0.2618,0.2618,0.2617,0.2616,0.2656,0.2658,0.266,0.2686,0,0,0.2667,0.2667,0,0,0,0,0,0,0,0,0.2558,0.2561,0.2587,0.2589,0.259,0.2617,0.262,0.2645,0.2618,0.2605,0.2617,0.2616,0.2646,0.2648,0.2654,0.2688,0.269,0.2667,0.2668,0.2669,0.267,0,0,0,0,0,0,0,0.2556,0.256,0.2597,0.2588,0.259,0.2599,0.2602,0.2625,0.2627,0.2606,0.2606,0.2615,0.2646,0.2652,0.2655,0.269,0.2667,0.2669,0.267,0.2671,0.2774,0.2775,0,0,0,0,0,0,0.2556,0.2558,0.2596,0.2598,0.2575,0.2601,0.2603,0.2607,0.2626,0.2629,0.2615,0.2614,0.2648,0.2652,0.2656,0.2721,0.2669,0.2671,0.2672,0.2773,0.2774,0.2776,0,0,0,0,0,0,0.2554,0.2558,0.2594,0.2581,0.2587,0.2602,0.2606,0.2608,0.2618,0.2634,0.2636,0.2624,0.2648,0.2653,0.2685,0.2721,0.2672,0.2674,0.2771,0.2773,0.2775,0.283,0,0,0,0,0,0,0.2553,0.2558,0.2561,0.2581,0.2587,0.2625,0.2607,0.2609,0.2625,0.2624,0.2642,0.2645,0.2648,0.2682,0.2687,0.2723,0.2676,0.2769,0.2772,0.2774,0.2827,0.2834,0.2841,0,0,0,0,0,0.2551,0.2561,0.256,0.2565,0.259,0.2627,0.2631,0.2638,0.2626,0.2642,0.2649,0.2644,0.2703,0.2685,0.2691,0.2729,0.2768,0.2771,0.2774,0.2824,0.2833,0.284,0,0,0,0,0,0,0.2539,0.2563,0.2562,0.2577,0.2605,0.2627,0.2643,0.2644,0.2662,0.2658,0.2662,0.2667,0.271,0.271,0.269,0.2766,0.2735,0.274,0.2771,0.278,0.2786,0.278,0.2678,0,0,0,0,0,0.2538,0.2553,0.2579,0.2593,0.2608,0.2624,0.2639,0.2646,0.2665,0.2671,0.2682,0.2699,0.2728,0.2745,0.2766,0.2808,0.2854,0.2836,0.2843,0.2849,0.2848,0.2899,0.2911,0.2787,0.2787,0.2786,0,0,0.2537,0.2553,0.256,0.2592,0.2611,0.2646,0.2631,0.2661,0.2688,0.2674,0.2711,0.2724,0.2744,0.2791,0.2811,0.2796,0.2933,0.2853,0.2858,0.2853,0.2904,0.2916,0.2927,0.2789,0.2788,0.2788,0,0,0.2554,0.2559,0.2582,0.261,0.2647,0.2663,0.2674,0.2702,0.2712,0.2751,0.275,0.2777,0.282,0.2841,0.2858,0.2915,0.2964,0.293,0.2965,0.3015,0.3026,0.3035,0.3215,0.3239,0.2936,0.2936,0.2936,0,0.2551,0.2583,0.2596,0.2634,0.2659,0.2673,0.2711,0.2732,0.2765,0.2777,0.2769,0.2831,0.2844,0.2903,0.2925,0.2931,0.3009,0.2932,0.3025,0.3034,0.3043,0.3223,0.3249,0.2939,0.2939,0.2938,0.2938,0,0.2594,0.262,0.2641,0.269,0.272,0.2756,0.2789,0.281,0.2819,0.2838,0.2887,0.2906,0.2942,0.2958,0.2962,0.3036,0.3097,0.3027,0.3003,0.3059,0.3247,0.3274,0.2943,0.2942,0.2941,0.2941,0,0,0.2586,0.2655,0.2663,0.2686,0.2751,0.2773,0.2824,0.2868,0.2894,0.2925,0.2973,0.3012,0.3016,0.3035,0.3048,0.3089,0.3252,0.3091,0.3092,0.3272,0.3478,0.3446,0.3474,0.3194,0.3196,0.3198,0.3624,0,0.2616,0.2678,0.2714,0.2773,0.2804,0.2836,0.2882,0.292,0.2951,0.3003,0.3026,0.3086,0.3052,0.3089,0.312,0.3221,0.3307,0.315,0.3394,0.3404,0.3366,0.3494,0.3334,0.3688,0.365,0.3654,0.3658,0,0.2652,0.2684,0.2742,0.2799,0.2817,0.2856,0.2912,0.2957,0.303,0.3063,0.3113,0.3148,0.3262,0.3189,0.3402,0.3311,0.34,0.3463,0.3479,0.3431,0.3415,0.3604,0.3738,0.3595,0.3698,0.3695,0.3692,0,0.2631,0.2703,0.2741,0.2766,0.2837,0.2861,0.29,0.2966,0.3021,0.3118,0.3195,0.3284,0.34,0.347,0.3615,0.3531,0.3855,0.3752,0.3825,0.3831,0.373,0.3719,0.3736,0.3874,0.3873,0.3871,0.387,0,0.2653,0.2678,0.2728,0.2751,0.2797,0.2846,0.2911,0.2961,0.3064,0.3171,0.3231,0.3361,0.3465,0.3649,0.371,0.3905,0.3951,0.3882,0.392,0.3757,0.3743,0.3635,0.3569,0.3887,0.3884,0.3881,0.3878,0,0.2641,0.2672,0.2715,0.2775,0.2793,0.2828,0.2933,0.2996,0.3094,0.3249,0.3307,0.351,0.3746,0.387,0.4078,0.4082,0.4111,0.4257,0.4129,0.4136,0.3975,0.3918,0.3909,0.3802,0.4421,0.4422,0.4424,0,0.2647,0.2666,0.2727,0.2763,0.2796,0.2851,0.2916,0.3004,0.31,0.3347,0.3453,0.3715,0.3873,0.4208,0.4265,0.4431,0.422,0.4371,0.4103,0.3985,0.3953,0.3771,0.3666,0.4082,0.408,0.4079,0.4078,0,0.267,0.2687,0.273,0.2797,0.2858,0.2907,0.3006,0.307,0.3223,0.3354,0.3574,0.3708,0.4032,0.4115,0.432,0.4367,0.4123,0.4343,0.422,0.3693,0.35,0.3407,0.3886,0.4065,0.4067,0.4067,0.4068,0.4069,0.27,0.273,0.2795,0.2844,0.2907,0.2951,0.2967,0.3087,0.3195,0.3365,0.3578,0.3731,0.3927,0.4153,0.4185,0.4103,0.4067,0.3951,0.3927,0.3782,0.3517,0.4022,0.4191,0.4193,0.4195,0.4196,0.4197,0,0.2745,0.2779,0.2843,0.2888,0.2923,0.295,0.3028,0.3024,0.31,0.33,0.3443,0.3614,0.3702,0.3797,0.3826,0.3708,0.3511,0.3594,0.3274,0.3213,0.3687,0.3497,0.3517,0.3517,0.3518,0.3518,0.3518,0.3518,0.2781,0.2838,0.2847,0.2881,0.2898,0.2889,0.289,0.2891,0.2976,0.3049,0.3128,0.3264,0.3445,0.3533,0.3422,0.3348,0.3069,0.2956,0.2948,0.3237,0.3264,0.3291,0.3091,0.3026,0.3026,0.2305,0.23,0.2296]},{"header":{"parameterUnit":"m.s-1","parameterCategory":2,"la1":30.2991,"la2":30.254,"lo1":-89.0895,"lo2":-89.0444,"dy":0.0017,"dx":0.0017,"nx":28,"ny":28,"refTime":"2024-04-13T09:00:00:Z","depth":"0","parameterNumber":3,"parameterNumberName":"V-component_of_CURRENTS"},"data":[0,0,0,0,0,0,0,0,0,0,0,0,0,0,0,0,0,0,0,0,0,0,0,0,0,0,0,0,0,0,0,0,0,0,0,0,0,0,0,0,0,0,0,0,0,0,0,0,0,0,0,0,0,0,0,0,0,0,0.0086,0.0085,0,0.0026,0.0025,0.0024,-0.0022,-0.0022,-0.0023,-0.0023,-0.0135,-0.0137,-0.014,0,0,0,0,0,0,0,0,0,0,0,0,0,0.0119,0.0119,0.0086,0.0085,0.0085,0.0026,0.0025,0.0024,-0.0022,-0.0022,-0.0023,-0.0023,-0.0134,-0.0137,-0.014,0,0,0,0,0,0,0,0,0,0,0,0,0,0.0086,0.0119,0.0086,0.0055,0.0052,0.0026,0.0025,0.0024,-0.0022,-0.0022,-0.0023,-0.0023,-0.0133,-0.0136,-0.014,-0.0154,0,0,-0.0152,-0.0154,0,0,0,0,0,0,0,0,0.0088,0.0085,0.006,0.0057,0.0054,0.001,-0.0004,-0.0038,-0.0022,0.0005,-0.0023,-0.0024,-0.009,-0.0098,-0.0108,-0.0159,-0.0164,-0.0153,-0.0155,-0.0157,-0.0158,0,0,0,0,0,0,0,0.009,0.0087,0.0061,0.006,0.0056,0.003,0.0025,-0.0011,-0.004,0.0003,-0.0,-0.0006,-0.0093,-0.0104,-0.0111,-0.0166,-0.0153,-0.0156,-0.0159,-0.016,-0.0275,-0.0276,0,0,0,0,0,0,0.0102,0.0089,0.0063,0.006,0.0071,0.003,0.0025,0.0024,-0.0039,-0.0048,-0.0005,-0.0007,-0.0097,-0.0107,-0.0115,-0.0174,-0.0157,-0.0161,-0.0163,-0.0275,-0.0276,-0.0276,0,0,0,0,0,0,0.0103,0.0101,0.0066,0.0073,0.0067,0.0031,0.003,0.0023,0.0011,-0.0044,-0.0055,-0.0009,-0.0098,-0.011,-0.0153,-0.0177,-0.0162,-0.0166,-0.0274,-0.0275,-0.0276,-0.0267,0,0,0,0,0,0,0.0105,0.0102,0.0105,0.0075,0.0067,0.0056,0.003,0.0022,0.0009,0.0005,-0.0052,-0.0062,-0.0099,-0.0147,-0.0157,-0.0182,-0.0169,-0.0273,-0.0274,-0.0276,-0.0266,-0.0267,-0.0268,0,0,0,0,0,0.0106,0.0118,0.0106,0.0103,0.0074,0.0056,0.005,0.0021,0.001,0.0008,-0.0037,-0.0061,-0.0163,-0.0151,-0.0162,-0.0189,-0.0272,-0.0274,-0.0276,-0.0265,-0.0267,-0.0268,0,0,0,0,0,0,0.0136,0.0113,0.01,0.0104,0.0083,0.0049,0.0047,0.0027,-0.0008,-0.0014,-0.0066,-0.008,-0.0132,-0.0155,-0.014,-0.0226,-0.0223,-0.0227,-0.0211,-0.0213,-0.0214,-0.0178,-0.0172,0,0,0,0,0,0.0145,0.0146,0.0118,0.0122,0.0115,0.0082,0.0072,0.0051,0.0017,0.0002,-0.004,-0.009,-0.0146,-0.0173,-0.0218,-0.0257,-0.0236,-0.0283,-0.0284,-0.0285,-0.0264,-0.0261,-0.0259,-0.0281,-0.0281,-0.0281,0,0,0.0157,0.0146,0.0146,0.0128,0.0111,0.0092,0.0074,0.0063,0.0038,-0.0006,-0.0048,-0.0093,-0.0157,-0.0211,-0.0235,-0.0234,-0.0263,-0.0287,-0.0287,-0.0265,-0.0262,-0.0259,-0.0257,-0.0282,-0.0282,-0.0282,0,0,0.0178,0.0174,0.0176,0.0158,0.0135,0.0112,0.0111,0.0076,0.0053,0.0012,-0.0039,-0.0089,-0.0159,-0.0215,-0.0254,-0.0283,-0.0269,-0.0303,-0.0282,-0.028,-0.0277,-0.0274,-0.0219,-0.0212,-0.0303,-0.0303,-0.0303,0,0.0192,0.0186,0.0175,0.0165,0.0149,0.0121,0.0109,0.0079,0.0032,0.002,0.0002,-0.0097,-0.0164,-0.0231,-0.0257,-0.0286,-0.0254,-0.0274,-0.0278,-0.0276,-0.0273,-0.0218,-0.021,-0.0303,-0.0303,-0.0303,-0.0303,0,0.0204,0.0193,0.0196,0.0169,0.0155,0.0144,0.0102,0.0085,0.0057,0.0031,-0.0019,-0.0096,-0.014,-0.0195,-0.0244,-0.0274,-0.0244,-0.0278,-0.0268,-0.027,-0.0211,-0.0203,-0.0303,-0.0303,-0.0303,-0.0303,0,0,0.0244,0.0209,0.0207,0.0198,0.0154,0.0152,0.0112,0.0082,0.0097,0.0028,0.0048,-0.0098,-0.0099,-0.0142,-0.0205,-0.0232,-0.021,-0.0245,-0.0245,-0.0176,-0.0149,-0.0115,-0.0102,-0.0238,-0.0237,-0.0237,-0.0106,0,0.025,0.0237,0.0213,0.0198,0.0186,0.0152,0.0134,0.0107,0.0095,0.0115,0.0032,0.0034,-0.0091,-0.0079,-0.014,-0.0169,-0.0191,-0.0238,-0.0169,-0.0166,-0.0125,-0.0093,-0.0134,-0.002,-0.0097,-0.0096,-0.0095,0,0.0258,0.025,0.0237,0.0223,0.0221,0.0217,0.0223,0.0209,0.0211,0.0216,0.0196,0.0177,0.0131,0.0044,-0.0022,-0.0035,-0.0093,-0.0135,-0.0131,-0.0093,-0.0117,-0.0039,-0.0002,-0.0227,-0.0082,-0.0083,-0.0084,0,0.029,0.0267,0.0263,0.0251,0.0233,0.0242,0.0248,0.025,0.0305,0.033,0.0427,0.0327,0.0393,0.0256,0.0166,0.0089,0.0142,0.0026,-0.0001,0.0004,-0.0013,-0.0012,-0.0175,-0.0023,-0.0024,-0.0024,-0.0024,0,0.0299,0.03,0.0291,0.0291,0.0344,0.0305,0.039,0.039,0.0468,0.0617,0.0519,0.0663,0.0457,0.0466,0.0278,0.0217,0.0236,0.0036,0.0038,-0.0009,-0.0009,-0.0192,-0.0297,-0.0019,-0.002,-0.0021,-0.0022,0,0.0343,0.0311,0.0337,0.0343,0.0362,0.0419,0.0532,0.0624,0.0671,0.0886,0.0934,0.0979,0.0987,0.0786,0.065,0.0452,0.0221,0.0284,0.0275,0.0271,-0.0031,-0.0131,-0.0191,-0.027,0.0254,0.0255,0.0257,0,0.0364,0.0374,0.0421,0.0494,0.0515,0.06,0.0694,0.0731,0.0878,0.1119,0.1274,0.1352,0.145,0.1265,0.0898,0.061,0.036,0.0395,0.0184,-0.0021,-0.0133,-0.0213,-0.0283,0.0181,0.0181,0.0182,0.0182,0,0.0451,0.0471,0.0519,0.0658,0.0766,0.0892,0.1042,0.1176,0.1305,0.15,0.1799,0.1898,0.1737,0.1459,0.1055,0.0803,0.0237,0.0398,0.0164,-0.0205,-0.0281,-0.0363,0.0105,0.0187,0.0186,0.0186,0.0186,0.0185,0.0568,0.0645,0.0733,0.0868,0.1002,0.1202,0.1327,0.1526,0.1773,0.2076,0.2162,0.2318,0.1869,0.1299,0.0986,0.0294,0.0299,0.002,-0.0073,-0.0127,-0.0255,0.0261,0.0345,0.0345,0.0345,0.0346,0.0346,0,0.0743,0.082,0.0954,0.112,0.1294,0.1323,0.1581,0.1729,0.2036,0.2293,0.2508,0.2319,0.1783,0.1174,0.0277,-0.0139,-0.033,-0.0374,-0.0567,-0.0612,-0.0179,-0.0243,-0.0259,-0.0259,-0.0259,-0.0258,-0.0258,-0.0258,0.0858,0.1013,0.1061,0.1348,0.1471,0.1695,0.1837,0.2072,0.2263,0.2528,0.2567,0.256,0.2017,0.0566,-0.0447,-0.0669,-0.0957,-0.0974,-0.1086,-0.0898,-0.0872,-0.0848,-0.094,-0.1101,-0.1102,-0.1529,-0.1533,-0.1537]}],[{"header":{"parameterUnit":"m.s-1","parameterCategory":2,"la1":30.2991,"la2":30.254,"lo1":-89.0895,"lo2":-89.0444,"dy":0.0017,"dx":0.0017,"nx":28,"ny":28,"refTime":"2024-04-13T09:00:00:Z","depth":"2","parameterNumber":2,"parameterNumberName":"U-component_of_CURRENTS"},"data":[0,0,0,0,0,0,0,0,0,0,0,0,0,0,0,0,0,0,0,0,0,0,0,0,0,0,0,0,0,0,0,0,0,0,0,0,0,0,0,0,0,0,0,0,0,0,0,0,0,0,0,0,0,0,0,0,0,0,0.214,0.214,0,0.2173,0.2173,0.2173,0.2184,0.2184,0.2184,0.2184,0.2226,0.2227,0.2228,0,0,0,0,0,0,0,0,0,0,0,0,0,0.2084,0.2084,0.214,0.214,0.2141,0.2172,0.2173,0.2173,0.2184,0.2184,0.2184,0.2184,0.2226,0.2227,0.2228,0,0,0,0,0,0,0,0,0,0,0,0,0,0.2108,0.2084,0.2139,0.2153,0.2155,0.2172,0.2173,0.2173,0.2184,0.2184,0.2184,0.2184,0.2225,0.2227,0.2228,0.2231,0,0,0.2232,0.2233,0,0,0,0,0,0,0,0,0.2107,0.211,0.215,0.2152,0.2154,0.2177,0.2168,0.2194,0.2183,0.2169,0.2184,0.2184,0.2213,0.2215,0.2216,0.2233,0.2235,0.2233,0.2233,0.2234,0.2234,0,0,0,0,0,0,0,0.2105,0.2108,0.2149,0.2151,0.2153,0.2157,0.216,0.2173,0.2186,0.217,0.2172,0.2181,0.2213,0.2214,0.2217,0.2236,0.2232,0.2234,0.2235,0.2235,0.2313,0.2315,0,0,0,0,0,0,0.2108,0.2107,0.2148,0.215,0.2134,0.2158,0.2161,0.2167,0.2186,0.219,0.2181,0.2182,0.2212,0.2215,0.2218,0.233,0.2234,0.2235,0.2236,0.2312,0.2314,0.2315,0,0,0,0,0,0,0.2106,0.2111,0.2147,0.2132,0.2138,0.2159,0.2164,0.2167,0.2182,0.2195,0.2198,0.2194,0.2212,0.2216,0.2238,0.2327,0.2236,0.2237,0.2311,0.2313,0.2314,0.2485,0,0,0,0,0,0,0.2104,0.211,0.2115,0.2132,0.2139,0.2167,0.2165,0.2168,0.2188,0.2189,0.2207,0.221,0.2212,0.2236,0.224,0.2328,0.2238,0.2309,0.2312,0.2314,0.2478,0.2492,0.2505,0,0,0,0,0,0.2102,0.2112,0.2115,0.2121,0.2145,0.2168,0.2172,0.2185,0.2188,0.2198,0.2207,0.2211,0.2254,0.2238,0.2242,0.2333,0.2308,0.2311,0.2314,0.2471,0.2489,0.2504,0,0,0,0,0,0,0.2094,0.2115,0.2119,0.2135,0.2154,0.2172,0.2186,0.2193,0.2207,0.2215,0.2217,0.2221,0.227,0.226,0.2242,0.2354,0.2286,0.2289,0.2404,0.2421,0.2434,0.2432,0.224,0,0,0,0,0,0.2094,0.2108,0.2127,0.2144,0.2154,0.2171,0.2183,0.2196,0.2212,0.2219,0.2231,0.2249,0.2282,0.2316,0.2316,0.2384,0.2387,0.2441,0.2455,0.2467,0.2463,0.2517,0.2537,0.2324,0.2324,0.2324,0,0,0.21,0.2112,0.2122,0.2143,0.2159,0.2193,0.2179,0.2209,0.2265,0.2222,0.2288,0.2281,0.2297,0.2368,0.2394,0.2382,0.2541,0.2471,0.2482,0.2471,0.2522,0.2543,0.2562,0.2326,0.2326,0.2325,0,0,0.212,0.2127,0.2146,0.2174,0.2206,0.2214,0.2227,0.2252,0.2294,0.2335,0.2338,0.2376,0.2406,0.2462,0.2491,0.2574,0.2586,0.2584,0.2693,0.2747,0.2766,0.2782,0.2874,0.2897,0.2623,0.2623,0.2623,0,0.2121,0.2167,0.2156,0.2195,0.2245,0.2229,0.2289,0.232,0.2355,0.24,0.237,0.2435,0.2459,0.2582,0.2626,0.2615,0.2645,0.2644,0.277,0.2785,0.2799,0.2888,0.2912,0.2631,0.2631,0.263,0.2629,0,0.2165,0.2218,0.2239,0.2286,0.2319,0.2374,0.2419,0.2454,0.2478,0.2505,0.2589,0.2603,0.2644,0.2686,0.2694,0.2829,0.2822,0.2763,0.2741,0.2832,0.2919,0.2941,0.2644,0.2641,0.2638,0.2636,0,0,0.2132,0.2251,0.2259,0.2322,0.2394,0.2417,0.2518,0.2598,0.2653,0.2683,0.2772,0.2851,0.2828,0.2856,0.2882,0.2959,0.3124,0.2926,0.2925,0.304,0.3284,0.3142,0.3151,0.3093,0.3096,0.3099,0.3329,0,0.2182,0.2295,0.234,0.2451,0.2524,0.2572,0.2652,0.2717,0.2763,0.2824,0.288,0.2936,0.2911,0.2945,0.3019,0.309,0.3177,0.3069,0.3155,0.3159,0.3039,0.3168,0.2889,0.3055,0.3349,0.3353,0.3355,0,0.221,0.23,0.2441,0.2573,0.2601,0.2646,0.2764,0.2835,0.2923,0.2965,0.3023,0.3029,0.318,0.3097,0.3287,0.3222,0.3261,0.3301,0.3309,0.3118,0.3052,0.2995,0.3082,0.339,0.3387,0.3385,0.3382,0,0.2222,0.2355,0.2483,0.2539,0.2674,0.2737,0.2778,0.2869,0.2945,0.3046,0.3098,0.3203,0.3286,0.3347,0.3443,0.3379,0.3621,0.3534,0.3444,0.3437,0.3181,0.3144,0.3625,0.3624,0.3624,0.3623,0.3623,0,0.2294,0.2394,0.2485,0.2579,0.2666,0.2743,0.2836,0.2895,0.2994,0.3079,0.3153,0.3236,0.3346,0.3481,0.3516,0.358,0.3687,0.3488,0.3484,0.3235,0.3201,0.3441,0.3417,0.3632,0.363,0.3628,0.3627,0,0.2339,0.2428,0.2547,0.2671,0.2695,0.2743,0.2844,0.2905,0.3009,0.3132,0.3178,0.3331,0.3473,0.3583,0.3727,0.3683,0.3747,0.3724,0.3448,0.3401,0.3512,0.3494,0.3648,0.3645,0.3642,0.364,0.3638,0,0.2406,0.247,0.2566,0.2607,0.2673,0.2745,0.2798,0.2898,0.2969,0.3173,0.3233,0.3408,0.347,0.3651,0.3608,0.3656,0.3726,0.3424,0.32,0.3533,0.3515,0.3501,0.3486,0.2983,0.2976,0.297,0.2965,0,0.2497,0.2495,0.2577,0.2634,0.269,0.2739,0.2819,0.2865,0.3004,0.3093,0.3215,0.3278,0.3408,0.329,0.3345,0.3317,0.3384,0.3297,0.3767,0.2977,0.2911,0.2891,0.2898,0.2914,0.2919,0.2923,0.2925,0.2927,0.2507,0.2528,0.2578,0.2608,0.2681,0.2702,0.2684,0.2751,0.2798,0.2846,0.3033,0.3019,0.3067,0.2922,0.2882,0.2855,0.3031,0.2913,0.293,0.2953,0.2792,0.2719,0.2661,0.2665,0.2668,0.2671,0.2673,0,0.2466,0.2496,0.2544,0.2562,0.2568,0.2639,0.2673,0.2574,0.2524,0.2626,0.2635,0.2428,0.2367,0.2449,0.23,0.2298,0.2268,0.2231,0.2175,0.2228,0.2274,0.2076,0.1758,0.1755,0.1752,0.175,0,0,0.2451,0.2449,0.2441,0.2409,0.2437,0.238,0.2353,0.2195,0.2178,0.205,0.2033,0.2184,0.2342,0.1992,0.196,0.1843,0.2017,0.1775,0.251,0.2494,0.2537,0.267,0.2424,0,0,0,0,0]},{"header":{"parameterUnit":"m.s-1","parameterCategory":2,"la1":30.2991,"la2":30.254,"lo1":-89.0895,"lo2":-89.0444,"dy":0.0017,"dx":0.0017,"nx":28,"ny":28,"refTime":"2024-04-13T09:00:00:Z","depth":"2","parameterNumber":3,"parameterNumberName":"V-component_of_CURRENTS"},"data":[0,0,0,0,0,0,0,0,0,0,0,0,0,0,0,0,0,0,0,0,0,0,0,0,0,0,0,0,0,0,0,0,0,0,0,0,0,0,0,0,0,0,0,0,0,0,0,0,0,0,0,0,0,0,0,0,0,0,-0.0076,-0.0076,0,-0.0124,-0.0124,-0.0125,-0.0162,-0.0162,-0.0162,-0.0162,-0.027,-0.0272,-0.0275,0,0,0,0,0,0,0,0,0,0,0,0,0,-0.0062,-0.0062,-0.0076,-0.0076,-0.0077,-0.0124,-0.0124,-0.0125,-0.0162,-0.0162,-0.0162,-0.0162,-0.0269,-0.0272,-0.0275,0,0,0,0,0,0,0,0,0,0,0,0,0,-0.0086,-0.0062,-0.0076,-0.01,-0.0102,-0.0123,-0.0124,-0.0125,-0.0161,-0.0162,-0.0162,-0.0162,-0.0268,-0.0272,-0.0276,-0.0293,0,0,-0.0288,-0.0289,0,0,0,0,0,0,0,0,-0.0084,-0.0086,-0.0096,-0.0098,-0.0101,-0.0136,-0.0159,-0.0184,-0.0161,-0.014,-0.0162,-0.0163,-0.0229,-0.0237,-0.0246,-0.0299,-0.0303,-0.0288,-0.0291,-0.0292,-0.0293,0,0,0,0,0,0,0,-0.0082,-0.0085,-0.0096,-0.0096,-0.0099,-0.0123,-0.0127,-0.0164,-0.0185,-0.0142,-0.0145,-0.0148,-0.0231,-0.0242,-0.0249,-0.0305,-0.0288,-0.0292,-0.0294,-0.0296,-0.0391,-0.0391,0,0,0,0,0,0,-0.0071,-0.0083,-0.0095,-0.0098,-0.0092,-0.0123,-0.0127,-0.0125,-0.0183,-0.0191,-0.0147,-0.0149,-0.0235,-0.0244,-0.0253,-0.0312,-0.0292,-0.0296,-0.0298,-0.0391,-0.0391,-0.0391,0,0,0,0,0,0,-0.007,-0.0071,-0.0093,-0.0091,-0.0095,-0.0123,-0.0121,-0.0126,-0.0136,-0.0186,-0.0196,-0.0151,-0.0235,-0.0247,-0.0283,-0.0316,-0.0298,-0.0301,-0.039,-0.0391,-0.0391,-0.041,0,0,0,0,0,0,-0.007,-0.0071,-0.0067,-0.0089,-0.0094,-0.0101,-0.012,-0.0127,-0.0137,-0.014,-0.0193,-0.0203,-0.0237,-0.0276,-0.0287,-0.0321,-0.0304,-0.039,-0.0391,-0.0391,-0.0409,-0.041,-0.0412,0,0,0,0,0,-0.0069,-0.0059,-0.0067,-0.0068,-0.0088,-0.01,-0.0105,-0.0128,-0.0136,-0.0138,-0.0174,-0.0201,-0.0286,-0.028,-0.0292,-0.0328,-0.039,-0.0391,-0.0391,-0.0408,-0.041,-0.0412,0,0,0,0,0,0,-0.0051,-0.0062,-0.0071,-0.0065,-0.008,-0.0106,-0.0108,-0.0123,-0.0151,-0.0156,-0.0203,-0.0215,-0.0256,-0.028,-0.0272,-0.0352,-0.0343,-0.0346,-0.0352,-0.0354,-0.0356,-0.0312,-0.0308,0,0,0,0,0,-0.0045,-0.004,-0.0058,-0.0053,-0.0058,-0.0083,-0.0091,-0.0105,-0.0132,-0.0144,-0.018,-0.0221,-0.0266,-0.0299,-0.0328,-0.0377,-0.036,-0.0405,-0.0407,-0.0408,-0.0378,-0.0379,-0.0377,-0.0392,-0.0392,-0.0392,0,0,-0.0037,-0.0042,-0.004,-0.0049,-0.0063,-0.007,-0.0089,-0.0096,-0.0116,-0.0153,-0.0186,-0.022,-0.0274,-0.0324,-0.0347,-0.0354,-0.0397,-0.0408,-0.0409,-0.0378,-0.0379,-0.0377,-0.0376,-0.0392,-0.0392,-0.0392,0,0,-0.0019,-0.0023,-0.0014,-0.0028,-0.0042,-0.0055,-0.0055,-0.0079,-0.0104,-0.0133,-0.0173,-0.0217,-0.0276,-0.033,-0.0366,-0.039,-0.0393,-0.0408,-0.0403,-0.0405,-0.0404,-0.0402,-0.0387,-0.0384,-0.0425,-0.0425,-0.0425,0,-0.0011,-0.0008,-0.0015,-0.0016,-0.003,-0.0046,-0.0051,-0.0077,-0.0113,-0.0127,-0.0139,-0.0214,-0.0278,-0.0346,-0.0369,-0.0397,-0.0379,-0.04,-0.0407,-0.0405,-0.0403,-0.0388,-0.0384,-0.0426,-0.0426,-0.0426,-0.0426,0,0.0006,0.0002,0.0006,-0.0002,-0.0011,-0.002,-0.0051,-0.0065,-0.0088,-0.0107,-0.0151,-0.0221,-0.0255,-0.0312,-0.0359,-0.0394,-0.038,-0.0398,-0.0402,-0.0402,-0.0387,-0.0383,-0.0427,-0.0427,-0.0427,-0.0427,0,0,0.0034,0.0019,0.0019,0.0018,-0.0011,-0.0006,-0.004,-0.0064,-0.0048,-0.0106,-0.0094,-0.0222,-0.0222,-0.026,-0.0328,-0.0366,-0.0376,-0.038,-0.038,-0.0362,-0.0354,-0.0429,-0.0431,-0.0391,-0.039,-0.039,-0.0352,0,0.0042,0.0045,0.003,0.0033,0.003,0.0,-0.0012,-0.0032,-0.0043,-0.0025,-0.0111,-0.0109,-0.0217,-0.0216,-0.0278,-0.0325,-0.0362,-0.0382,-0.0356,-0.0354,-0.042,-0.0429,-0.0376,-0.0345,-0.0348,-0.0347,-0.0346,0,0.0059,0.0057,0.0058,0.0058,0.0058,0.0069,0.0078,0.0067,0.0066,0.0064,0.0044,0.0024,-0.0044,-0.011,-0.0207,-0.0206,-0.0275,-0.0329,-0.0329,-0.0379,-0.0421,-0.0343,-0.0337,-0.0339,-0.034,-0.034,-0.0341,0,0.0087,0.0081,0.0087,0.0079,0.0078,0.0088,0.0101,0.0106,0.0139,0.016,0.0227,0.0138,0.0151,0.0042,-0.0092,-0.0128,-0.0165,-0.0227,-0.036,-0.0365,-0.0304,-0.0306,-0.0279,-0.0279,-0.0279,-0.0279,-0.0279,0,0.0095,0.0104,0.0115,0.0117,0.0172,0.015,0.0227,0.0229,0.0283,0.0365,0.0306,0.0353,0.0196,0.0148,-0.0009,-0.0161,-0.0099,-0.0341,-0.0362,-0.0313,-0.0316,-0.0296,-0.0298,-0.0278,-0.0278,-0.0278,-0.0278,0,0.0129,0.0116,0.0148,0.0167,0.019,0.0244,0.0337,0.0402,0.0441,0.056,0.0588,0.0552,0.0461,0.03,0.0142,-0.0031,-0.0181,-0.0253,-0.0183,-0.02,-0.0398,-0.0402,-0.0392,-0.0394,-0.0396,-0.0398,-0.04,0,0.0143,0.0157,0.0218,0.0267,0.0288,0.0369,0.0436,0.0483,0.056,0.0668,0.0732,0.0701,0.0662,0.0408,0.0119,-0.0131,-0.0189,-0.0269,-0.0373,-0.0389,-0.041,-0.0411,-0.0412,-0.0285,-0.0285,-0.0286,-0.0286,0,0.0182,0.0214,0.0251,0.0348,0.0432,0.0524,0.0618,0.0697,0.0767,0.0866,0.0936,0.0926,0.0707,0.0444,0.0103,-0.0084,-0.0236,-0.0291,-0.0275,-0.0297,-0.0295,-0.0314,-0.0316,-0.0288,-0.0288,-0.0288,-0.0288,-0.0288,0.0238,0.0286,0.034,0.0416,0.0531,0.0626,0.0693,0.081,0.0923,0.1061,0.1042,0.1054,0.079,0.0331,0.0042,-0.0263,-0.0291,-0.0407,-0.0402,-0.0397,-0.0425,-0.043,-0.0451,-0.0452,-0.0452,-0.0453,-0.0453,0,0.0263,0.0303,0.0393,0.0473,0.0571,0.0634,0.0772,0.0859,0.0983,0.1138,0.1197,0.096,0.0692,0.0398,-0.0052,-0.0352,-0.0343,-0.0444,-0.0356,-0.0352,-0.0349,-0.0372,-0.0385,-0.0386,-0.0386,-0.0387,0,0,0.0282,0.0323,0.033,0.0439,0.0531,0.0669,0.074,0.0925,0.1062,0.1181,0.1215,0.1192,0.082,0.0497,0.0119,-0.012,-0.0169,-0.0172,-0.0196,-0.0043,-0.0035,-0.0301,-0.0329,0,0,0,0,0]}],[{"header":{"parameterUnit":"m.s-1","parameterCategory":2,"la1":30.2991,"la2":30.254,"lo1":-89.0895,"lo2":-89.0444,"dy":0.0017,"dx":0.0017,"nx":28,"ny":28,"refTime":"2024-04-13T09:00:00:Z","depth":"4","parameterNumber":2,"parameterNumberName":"U-component_of_CURRENTS"},"data":[0,0,0,0,0,0,0,0,0,0,0,0,0,0,0,0,0,0,0,0,0,0,0,0,0,0,0,0,0,0,0,0,0,0,0,0,0,0,0,0,0,0,0,0,0,0,0,0,0,0,0,0,0,0,0,0,0,0,0.1229,0.123,0,0.1285,0.1285,0.1286,0.1317,0.1317,0.1318,0.1318,0.1341,0.1341,0.1342,0,0,0,0,0,0,0,0,0,0,0,0,0,0.1138,0.1139,0.1229,0.123,0.1231,0.1285,0.1285,0.1286,0.1316,0.1317,0.1318,0.1318,0.1341,0.1341,0.1342,0,0,0,0,0,0,0,0,0,0,0,0,0,0.118,0.114,0.1229,0.1256,0.1259,0.1285,0.1285,0.1286,0.1316,0.1317,0.1318,0.1318,0.1341,0.1341,0.1342,0.1329,0,0,0.1342,0.1343,0,0,0,0,0,0,0,0,0.1178,0.1183,0.1251,0.1254,0.1258,0.1298,0.1262,0.13,0.1316,0.129,0.1318,0.1319,0.1326,0.1328,0.1331,0.133,0.1331,0.1342,0.1343,0.1343,0.1343,0,0,0,0,0,0,0,0.1175,0.1181,0.1247,0.1252,0.1257,0.1263,0.1269,0.1269,0.1299,0.1292,0.1296,0.1309,0.1327,0.1331,0.1332,0.1331,0.1342,0.1343,0.1343,0.1343,0.1388,0.1389,0,0,0,0,0,0,0.1177,0.1178,0.1245,0.1249,0.1224,0.1264,0.1271,0.1281,0.13,0.1305,0.1308,0.131,0.133,0.1331,0.1333,0.1357,0.1343,0.1343,0.1343,0.1387,0.1389,0.139,0,0,0,0,0,0,0.1174,0.1182,0.1243,0.1218,0.1227,0.1265,0.1276,0.1282,0.1313,0.1313,0.1317,0.1337,0.133,0.1332,0.1352,0.1357,0.1343,0.1343,0.1386,0.1388,0.1389,0.1381,0,0,0,0,0,0,0.1171,0.118,0.1201,0.1218,0.1229,0.1264,0.1276,0.1283,0.132,0.1324,0.1339,0.134,0.1331,0.1352,0.1352,0.1357,0.1344,0.1385,0.1387,0.1389,0.138,0.1382,0.1384,0,0,0,0,0,0.1168,0.1186,0.1202,0.1211,0.1251,0.1265,0.127,0.1296,0.1321,0.1328,0.1346,0.1341,0.1365,0.1352,0.1353,0.1358,0.1384,0.1386,0.1389,0.1379,0.1382,0.1384,0,0,0,0,0,0,0.1155,0.1192,0.1209,0.1238,0.1256,0.1272,0.1287,0.1312,0.1333,0.1342,0.1349,0.1351,0.1375,0.1372,0.1359,0.1381,0.1376,0.1378,0.1369,0.1371,0.1373,0.1399,0.1344,0,0,0,0,0,0.1163,0.1187,0.1214,0.1237,0.1247,0.1274,0.1291,0.1307,0.1325,0.1337,0.1352,0.1368,0.138,0.1382,0.1392,0.1396,0.1442,0.1404,0.1406,0.1408,0.1432,0.1523,0.1536,0.1398,0.1398,0.1397,0,0,0.1161,0.1189,0.1201,0.1237,0.1252,0.1255,0.1285,0.1307,0.1316,0.1334,0.1357,0.138,0.1388,0.1396,0.1406,0.1394,0.1466,0.1411,0.1412,0.1436,0.1527,0.154,0.1553,0.1399,0.1399,0.1399,0,0,0.1147,0.1194,0.1197,0.121,0.1241,0.1261,0.1274,0.1303,0.1323,0.1349,0.1368,0.1404,0.1415,0.1422,0.1426,0.145,0.1483,0.1451,0.1468,0.1555,0.1567,0.1579,0.163,0.1646,0.144,0.144,0.144,0,0.1147,0.1152,0.1198,0.1196,0.1209,0.1264,0.1257,0.1282,0.1318,0.1353,0.1358,0.1434,0.1429,0.146,0.1461,0.1454,0.1507,0.145,0.1558,0.1571,0.1583,0.1633,0.1651,0.144,0.144,0.144,0.144,0,0.1114,0.1127,0.1128,0.1148,0.1171,0.1175,0.1215,0.1258,0.1308,0.1348,0.1419,0.1434,0.149,0.1481,0.1471,0.1546,0.1555,0.1558,0.155,0.1596,0.1646,0.1665,0.144,0.144,0.144,0.144,0,0,0.1083,0.1101,0.1102,0.1107,0.1146,0.1164,0.1199,0.1258,0.1327,0.137,0.1443,0.1468,0.1527,0.1538,0.1542,0.1598,0.1698,0.1612,0.1616,0.166,0.1885,0.1709,0.1713,0.1731,0.1735,0.1738,0.1876,0,0.104,0.1026,0.1052,0.1052,0.1049,0.1119,0.116,0.1233,0.1319,0.1408,0.1461,0.1547,0.153,0.1583,0.1628,0.1704,0.1754,0.166,0.1838,0.1843,0.1679,0.1731,0.175,0.189,0.1895,0.1898,0.19,0,0.0986,0.0994,0.0974,0.1026,0.1036,0.1071,0.1195,0.1225,0.1365,0.1439,0.1542,0.1622,0.1714,0.1695,0.1852,0.1803,0.1847,0.189,0.1896,0.1755,0.1703,0.1843,0.1935,0.1933,0.193,0.1928,0.1926,0,0.0927,0.0943,0.0935,0.094,0.1005,0.1059,0.1121,0.1261,0.1329,0.1491,0.1605,0.1716,0.1796,0.1899,0.197,0.1954,0.2126,0.2114,0.1992,0.1979,0.21,0.2087,0.2228,0.2228,0.2228,0.2227,0.2227,0,0.0855,0.0851,0.0928,0.0916,0.098,0.1038,0.1139,0.1235,0.1381,0.1473,0.1629,0.1738,0.1864,0.197,0.2021,0.205,0.2176,0.2014,0.2013,0.2088,0.2072,0.2112,0.2097,0.2232,0.2231,0.223,0.2229,0,0.0755,0.0793,0.0791,0.0882,0.0941,0.0982,0.1147,0.1229,0.1393,0.1521,0.1594,0.1792,0.194,0.2031,0.2172,0.2101,0.2164,0.2132,0.2193,0.219,0.1953,0.1936,0.2054,0.2049,0.2045,0.2041,0.2039,0,0.0682,0.0667,0.0758,0.0811,0.0864,0.0963,0.1052,0.1212,0.1292,0.1544,0.1591,0.1806,0.1913,0.199,0.2069,0.2145,0.2106,0.2105,0.2037,0.1953,0.1941,0.193,0.1919,0.2032,0.2031,0.203,0.2029,0,0.0543,0.0586,0.0601,0.0705,0.081,0.0902,0.1035,0.1097,0.126,0.144,0.1595,0.1709,0.1824,0.1911,0.1944,0.1996,0.21,0.2063,0.2071,0.2008,0.1928,0.1918,0.1912,0.2015,0.2017,0.2018,0.2019,0,0.0453,0.0458,0.0507,0.0598,0.071,0.081,0.0899,0.1024,0.1127,0.1397,0.143,0.1657,0.1796,0.1834,0.1889,0.1899,0.1888,0.1819,0.1841,0.1857,0.1721,0.1586,0.1584,0,0,0,0,0,0.037,0.0389,0.0427,0.0525,0.0614,0.07,0.0871,0.096,0.1135,0.1206,0.1316,0.1438,0.156,0.1672,0.1649,0.1782,0.1866,0.1742,0.1789,0.1936,0.1952,0.1804,0,0,0,0,0,0,0.0334,0.0354,0.0376,0.0417,0.0481,0.0592,0.07,0.0836,0.0883,0.1079,0.1168,0.1316,0.1462,0.1554,0.1611,0.1635,0.1626,0.1862,0.1857,0.1926,0.1941,0.1954,0.1808,0,0,0,0,0]},{"header":{"parameterUnit":"m.s-1","parameterCategory":2,"la1":30.2991,"la2":30.254,"lo1":-89.0895,"lo2":-89.0444,"dy":0.0017,"dx":0.0017,"nx":28,"ny":28,"refTime":"2024-04-13T09:00:00:Z","depth":"4","parameterNumber":3,"parameterNumberName":"V-component_of_CURRENTS"},"data":[0,0,0,0,0,0,0,0,0,0,0,0,0,0,0,0,0,0,0,0,0,0,0,0,0,0,0,0,0,0,0,0,0,0,0,0,0,0,0,0,0,0,0,0,0,0,0,0,0,0,0,0,0,0,0,0,0,0,-0.0024,-0.0024,0,-0.0051,-0.0051,-0.0051,-0.0072,-0.0072,-0.0072,-0.0072,-0.0133,-0.0135,-0.0136,0,0,0,0,0,0,0,0,0,0,0,0,0,-0.002,-0.002,-0.0024,-0.0024,-0.0025,-0.0051,-0.0051,-0.0051,-0.0072,-0.0072,-0.0072,-0.0072,-0.0133,-0.0135,-0.0136,0,0,0,0,0,0,0,0,0,0,0,0,0,-0.0032,-0.002,-0.0024,-0.0038,-0.0039,-0.0051,-0.0051,-0.0052,-0.0072,-0.0072,-0.0072,-0.0072,-0.0132,-0.0134,-0.0137,-0.0145,0,0,-0.0143,-0.0144,0,0,0,0,0,0,0,0,-0.0031,-0.0032,-0.0035,-0.0037,-0.0038,-0.0058,-0.0072,-0.0085,-0.0071,-0.0059,-0.0072,-0.0072,-0.0111,-0.0115,-0.0119,-0.0148,-0.0151,-0.0144,-0.0145,-0.0146,-0.0147,0,0,0,0,0,0,0,-0.003,-0.0031,-0.0035,-0.0036,-0.0037,-0.0053,-0.0054,-0.0075,-0.0084,-0.0061,-0.0062,-0.0065,-0.0112,-0.0117,-0.0121,-0.0152,-0.0144,-0.0146,-0.0147,-0.0148,-0.0159,-0.0158,0,0,0,0,0,0,-0.0025,-0.003,-0.0034,-0.0036,-0.0035,-0.0052,-0.0054,-0.0052,-0.0083,-0.0088,-0.0064,-0.0065,-0.0113,-0.0118,-0.0123,-0.0087,-0.0146,-0.0148,-0.0149,-0.016,-0.0159,-0.0158,0,0,0,0,0,0,-0.0024,-0.0025,-0.0033,-0.0034,-0.0036,-0.0052,-0.0049,-0.0052,-0.0057,-0.0086,-0.0091,-0.0067,-0.0114,-0.012,-0.0133,-0.0092,-0.0149,-0.0151,-0.0162,-0.016,-0.0159,-0.0046,0,0,0,0,0,0,-0.0024,-0.0024,-0.0023,-0.0033,-0.0036,-0.0032,-0.0049,-0.0052,-0.0059,-0.006,-0.009,-0.0096,-0.0114,-0.0129,-0.0135,-0.0096,-0.0153,-0.0163,-0.0161,-0.0159,-0.0051,-0.0041,-0.0033,0,0,0,0,0,-0.0024,-0.0016,-0.0023,-0.0023,-0.0032,-0.0032,-0.0034,-0.0047,-0.0058,-0.0055,-0.0073,-0.0095,-0.012,-0.013,-0.0137,-0.0098,-0.0164,-0.0161,-0.0159,-0.0056,-0.0043,-0.0033,0,0,0,0,0,0,-0.0017,-0.0018,-0.0025,-0.002,-0.0023,-0.0035,-0.0035,-0.0045,-0.0057,-0.006,-0.0089,-0.0096,-0.0089,-0.0117,-0.0127,-0.0097,-0.0143,-0.0142,-0.0062,-0.005,-0.0041,-0.0014,-0.0155,0,0,0,0,0,-0.0014,-0.0007,-0.0013,-0.001,-0.0009,-0.0023,-0.0027,-0.0032,-0.0044,-0.0049,-0.0067,-0.0083,-0.0085,-0.0087,-0.0103,-0.0092,-0.0152,-0.0071,-0.0061,-0.0053,-0.0036,-0.0104,-0.0099,-0.015,-0.015,-0.015,0,0,-0.0012,-0.0011,-0.0009,-0.0008,-0.0013,0.0011,-0.0025,-0.0023,0.0005,-0.0055,-0.003,-0.0057,-0.0079,-0.0059,-0.0057,-0.0075,-0.0073,-0.005,-0.0042,-0.003,-0.0101,-0.0096,-0.0092,-0.0149,-0.0149,-0.0149,0,0,0.0012,-0.0,0.002,0.0029,0.003,0.0027,0.003,0.0024,0.0028,0.004,0.0015,0.0015,-0.0002,0.0008,0.0007,0.0056,-0.0027,0.0045,0.0124,0.0059,0.0062,0.0065,-0.0018,-0.0024,0.0057,0.0057,0.0057,0,0.0015,0.005,0.0025,0.0058,0.008,0.0041,0.0085,0.0084,0.0077,0.0091,0.0061,0.0057,0.0041,0.0082,0.011,0.0083,0.0011,0.0087,0.0071,0.0072,0.0073,-0.0012,-0.002,0.0063,0.0062,0.0062,0.0061,0,0.0066,0.0098,0.0112,0.0149,0.0162,0.019,0.0194,0.0202,0.0194,0.0195,0.0213,0.0183,0.018,0.0185,0.0169,0.0184,0.0118,0.0084,0.0045,0.0085,-0.0008,-0.0018,0.0071,0.0069,0.0067,0.0066,0,0,0.0074,0.0139,0.0148,0.0194,0.0222,0.0241,0.0285,0.032,0.0338,0.0332,0.035,0.0377,0.0335,0.0332,0.03,0.0267,0.0217,0.0189,0.0182,0.0111,0.0041,0.0046,0.0034,0.0163,0.0162,0.0161,-0.0031,0,0.013,0.0222,0.0238,0.0329,0.0381,0.038,0.0423,0.0444,0.0431,0.0426,0.0411,0.0401,0.0397,0.0373,0.0352,0.023,0.0197,0.0271,0.0009,0.0002,0.0006,0.0027,0.0159,-0.0039,-0.0041,-0.0043,-0.0044,0,0.0188,0.0248,0.0353,0.044,0.0459,0.0505,0.0554,0.0578,0.0565,0.0547,0.0536,0.0479,0.0454,0.0413,0.0275,0.0308,0.0203,0.0114,0.0103,0.0068,-0.001,-0.0087,-0.0064,-0.0062,-0.0061,-0.006,-0.0058,0,0.0231,0.0332,0.0424,0.0458,0.0537,0.0586,0.0614,0.0625,0.0631,0.0595,0.056,0.0521,0.045,0.0344,0.0188,0.0207,-0.0014,-0.0023,-0.0107,-0.0111,-0.0111,-0.0112,-0.0113,-0.0113,-0.0112,-0.0112,-0.0111,0,0.03,0.0374,0.0453,0.0513,0.0592,0.0634,0.0685,0.0693,0.068,0.0668,0.0612,0.0562,0.0422,0.0283,0.0166,-0.001,-0.0037,-0.0087,-0.0149,-0.0062,-0.0055,-0.012,-0.0118,-0.0119,-0.0117,-0.0116,-0.0115,0,0.0335,0.0395,0.0495,0.0595,0.0618,0.0669,0.0715,0.0732,0.0717,0.0679,0.0659,0.0552,0.0384,0.0234,0.0012,-0.0055,-0.0218,-0.0272,-0.0189,-0.0247,-0.0267,-0.0257,-0.0376,-0.0377,-0.0378,-0.0379,-0.0379,0,0.0367,0.0423,0.0528,0.0561,0.0609,0.0674,0.0703,0.0736,0.0738,0.0672,0.0642,0.049,0.0405,0.0097,-0.0049,-0.0279,-0.0286,-0.0384,-0.0267,-0.0239,-0.0289,-0.0278,-0.0267,-0.0381,-0.0381,-0.0381,-0.0382,0,0.0404,0.0433,0.0497,0.0566,0.0619,0.0667,0.0716,0.0723,0.0731,0.0713,0.0618,0.0485,0.029,0.01,-0.0093,-0.0244,-0.0323,-0.0394,-0.0391,-0.0281,-0.0247,-0.0293,-0.0282,-0.0385,-0.0385,-0.0384,-0.0384,0,0.0399,0.043,0.0497,0.0555,0.0612,0.0656,0.0685,0.0697,0.0707,0.0661,0.0617,0.0441,0.0339,0.0113,-0.0065,-0.0213,-0.0214,-0.0239,-0.0244,-0.0242,-0.0119,-0.0051,-0.0176,0,0,0,0,0,0.0393,0.0426,0.0475,0.0549,0.0604,0.0644,0.0688,0.0709,0.072,0.0663,0.0655,0.049,0.0253,0.014,-0.0002,-0.0075,-0.025,-0.0247,-0.0282,-0.0404,-0.04,-0.0274,0,0,0,0,0,0,0.0385,0.0434,0.047,0.0535,0.0577,0.064,0.0675,0.0678,0.0658,0.0643,0.0519,0.0466,0.0233,0.0337,-0.0002,-0.0049,-0.0087,-0.0356,-0.0359,-0.0406,-0.0403,-0.04,-0.0269,0,0,0,0,0]}]]